LFBZLFBA

Guest
Details From LFBZ - Biarritz-Anglet-Bayonne
To LFBA - Agen la Garenne
Flight Number -
Tags generated
Created
Modified
Stats Distance 101 nm / 187 km
Max Altitude 200 ft / 61 m
Waypoints 3
Social Downloads 1
Likes 0
Share VATSIM

Download

Looking for another format? Having issues loading an existing format? Contact us
Advertisement - Login to hide

Notes

Basic altitude profile: - Ascent Rate: 2500ft/min - Ascent Speed: 250kts - Cruise Altitude: 35000ft - Cruise Speed: 420kts - Descent Rate: 1500ft/min - Descent Speed: 250kts Options: - Use NATs: yes - Use PACOTS: yes - Use low airways: yes - Use high airways: yes

Route

LFBZ BTZ LFBA

ID Type Via Altitude Latitude Longitude Leg Dist Tot Dist Heading (true) Name
O LFBZ APT - 0 ft / 0 m 43.46843˚ -1.52332˚ - 0 nm - Biarritz-Anglet-Bayonne
BTZ VOR - 200 ft / 61 m 43.46664˚ -1.51028˚ 0 nm 0 nm 101° / 101° BIARRITZ BAYONNE ANGLET VOR-DM
O LFBA APT - 0 ft / 0 m 44.17403˚ 0.59296˚ 100 nm 101 nm 64° / 66° Agen la Garenne

Altitude Profile

Advertisement - Login to hide

LFBZ

Details ICAO LFBZ (BIQ)
Name Biarritz-Anglet-Bayonne
Region France
Timezone Europe/Paris (UTC+2.0)
Stats Elevation 245 ft / 75 m (AMSL)
Location 43.468427° -1.523322°
Runways 1
Magnetic Variation 0.172° W

METAR

LFBZ 221400Z AUTO 28010KT CAVOK 20/15 Q1015 NOSIG

Decode

TAF

TAF LFBZ 221100Z 2212/2312 29008KT CAVOK PROB30 TEMPO 2216/2308 BKN010

Decode

Departure Runways

ID Width Length Bearing (true) Bearing (mag) Surface Threshold Offset Overrun Length
09 148 ft / 45 m 7,388 ft / 2,252 m 89.12° 89.29° Asphalt 673 ft / 205 m 0 ft / 0 m
27 148 ft / 45 m 7,388 ft / 2,252 m 269.14° 269.31° Asphalt 0 ft / 0 m 0 ft / 0 m

LFBA

Details ICAO LFBA (AGF)
Name Agen la Garenne
Region France
Timezone Europe/Paris (UTC+2.0)
Stats Elevation 204 ft / 62 m (AMSL)
Location 44.174025° 0.592961°
Runways 1
Magnetic Variation 0.395° E

METAR

LFBA 221400Z AUTO 29005KT 240V350 9999 ///CB 24/14 Q1014 TEMPO 30015G30KT 4000 TSRA

Decode

TAF

Not found

Destination Runways

ID Width Length Bearing (true) Bearing (mag) Surface Threshold Offset Overrun Length
11 98 ft / 30 m 7,088 ft / 2,161 m 112.24° 111.85° Asphalt 541 ft / 165 m 0 ft / 0 m
29 98 ft / 30 m 7,088 ft / 2,161 m 292.26° 291.87° Asphalt 1,312 ft / 400 m 0 ft / 0 m

Approach Navaids

Runway Type Ident Frequency Range Bearing (true) Bearing (mag) Slope Elevation
29 Localiser AG 110.35 MHz 18 nm / 33 km 292.25° 291.86° - 213 ft / 65 m (AMSL)
29 Glidescope AG 110.35 MHz 10 nm / 19 km 292.25° 291.86° 3.30° 240 ft / 73 m (AMSL)
29 DME AG 110.35 MHz 18 nm / 33 km - - - 240 ft / 73 m (AMSL)

Popular Alternatives